カタログに戻る

STARLINK-35922

運用中通信VLEO
NORAD 66502·PAYLOAD·🇺🇸 United States

打ち上げ Nov 15, 2025 から Cape Canaveral Space Force Station

Loading…

次のパス (今後24時間)

TLE

最新Source: CelesTrak SupGP

元期: Sep 15, 2026, 02:44 UTC

1 66502C 25263T   26258.11437500  .00029735  00000+0  10770-2 0  2581
2 66502  43.0015   1.2156 0001513 272.4858 155.8090 15.27561862    17

AllMySatでSTARLINK-35922をリアルタイム追跡

Download on the App Store